Weather in Gakugsa

Russia / Republic of Karelia     61°34′24″N   36°26′27″E
temp.,
°C
wind,
m/s
gust,
m/s
humid.,
%
clouds,
%
prec.,
mm/h
press.,
hPa
HPBL,
m
27 july, tue
tue2700:00+15e119014 0.0 102013
03:00+14e119388 0.5 102027
06:00+14ene257787 0.0 1020171
09:00+18ene2349100 0.0 1020470
12:00+23nne124464 0.2 10201085
15:00+24nnw23380 0.2 10181520
18:00+23nnw23365 0.0 10181004
21:00+16ene22571 0.0 101813
28 july, wed
wed2800:00+14e22585 0.0 101820
03:00+12se22645 0.0 101736
06:00+14se25605 0.0 1016119
09:00+21sse354332 0.0 1014476
12:00+24sw334415 0.0 1012984
15:00+26sw234012 0.0 10101239
18:00+25ssw1144100 0.0 1008138
21:00+20sse2265100 0.1 100726
29 july, thu
thu2900:00+17wsw2888100 0.3 1006233
03:00+16s249698 0.4 1005102
06:00+16wsw279798 2.1 1004228
09:00+19wsw2379100 2.3 1003426
12:00+22ssw335897 0.0 1002923
15:00+20ssw3466100 0.0 1001412
18:00+20sw3876100 0.3 999477
21:00+17w41088100 5.2 999259
30 july, fri
fri3000:00+16wsw4119358 2.8 998408
03:00+15sw411949 3.1 999358
06:00+16wsw4109182 0.0 999470
09:00+19wsw587011 0.0 1000800
12:00+22sw485497 0.0 10001629
15:00+24sw584463 0.0 10002113
18:00+21ssw486073 0.0 999808
21:00+18sw51066100 0.1 999579
31 july, sat
sat3100:00+15ssw4109221 0.4 999324
03:00+13s379725 1.1 999217
06:00+14sse389469 0.0 997284
09:00+18s51066100 0.1 996726
12:00+14ssw51192100 0.9 996741
15:00+15ssw51392100 1.9 9951005
18:00+17sw7138831 0.8 9941018
21:00+16sw613904 2.3 994674